Granada, Spain

11:01 AM CET en Diciembre 17, 2018 (GMT +0100)
Granada

Tiempo Historia de LEGR - Octubre, 2018

Change the Weather History Date:

Jueves, Octubre 11, 2018

  Actual Average Record
Temperature  
Temperatura media 66 ° F -  
Temperatura máxima 77 ° F 68 ° F 91 ° F (2017)
Temperatura mínima 55 ° F 44 ° F 39 ° F (1996)
Cooling Degree Days 1    
Growing Degree Days 16 (Base 50)    
Moisture  
Punto de rocío 57 ° F    
Average Humidity 77    
Maximum Humidity 94    
Minimum Humidity 41    
Precipitación  
Precipitación 0.02 pul - - ()
Presión al nivel del mar  
Presión al nivel del mar 29.98 pul    
Viento  
Velocidad del viento 2 mph ()    
Velocidad máxima del viento 12 mph    
Max Gust Speed 20 mph    
Visibilidad 8.5 Millas    
Eventos      
Averages and records for this station are not official NWS values.
T = Trace of Precipitation, MM = Missing Value Source: Averaged Metar Reports

Daily Weather History Graph

Daily Weather History Graph

Search for Another Location

Airport or City:

Astronomía

Oct. 11, 2018 Salida Puesta
Hora real 8:19 AM CEST 7:44 PM CEST
Crepúsculo civil 7:53 AM CEST 8:10 PM CEST
Crepúsculo náutico 7:22 AM CEST 8:40 PM CEST
Crepúsculo astronómico 6:52 AM CEST 9:10 PM CEST
Luna 10:33 AM CEST (10/11) 9:34 PM CEST (10/11)
Horas de luz 12h 17m
Horas de luz
11h 24m
Creciente, 6% of the Moon is Illuminated
Oct 11
Creciente
Oct 16
Cuarto creciente
Oct 24
Luna llena
Oct 31
Cuarto menguante
Nov 7
Nueva

Hourly Weather History & Observations

Hora (CEST) Temp. Punto de rocío Humedad Presión Visibilidad Wind Dir Velocidad del viento Velocidad de ráfagas Precip Eventos Condiciones
12:00 AM 59 ° F 54 ° F 80% 29.88 pul 15 mi SO 1.2 mph - -  
12:00 AM 59.0 ° F 55.4 ° F 88% 29.92 pul 6.2 mi Variable 1.2 mph - N/A   Desconocido
12:30 AM 59.0 ° F 55.4 ° F 88% 29.92 pul 6.2 mi Variable 1.2 mph - N/A   Desconocido
1:00 AM 57.2 ° F 53.6 ° F 88% 29.92 pul 6.2 mi Variable 2.3 mph - N/A   Desconocido
1:30 AM 57.2 ° F 53.6 ° F 88% 29.92 pul 6.2 mi Sin viento Sin viento - N/A   Desconocido
2:00 AM 55 ° F 53 ° F 89% 29.91 pul 15 mi SO 1.2 mph - -  
2:00 AM 55.4 ° F 53.6 ° F 94% 29.92 pul 6.2 mi Variable 1.2 mph - N/A   Desconocido
2:30 AM 55.4 ° F 53.6 ° F 94% 29.92 pul 6.2 mi Sin viento Sin viento - N/A   Nubes dispersas
3:00 AM 56 ° F 54 ° F 90% 29.92 pul 14 mi OSO 3.5 mph - -  
3:00 AM 57.2 ° F 53.6 ° F 88% 29.92 pul 6.2 mi OSO 2.3 mph - N/A   Muy nublado
3:30 AM 57.2 ° F 53.6 ° F 88% 29.92 pul 6.2 mi SSO 1.2 mph - N/A   Parcialmente nublado
4:00 AM 56 ° F 54 ° F 91% 29.91 pul 10 mi Sin viento Sin viento - -  
4:00 AM 57.2 ° F 53.6 ° F 88% 29.92 pul 6.2 mi Sin viento Sin viento - N/A   Parcialmente nublado
4:30 AM 57.2 ° F 53.6 ° F 88% 29.92 pul 6.2 mi Variable 1.2 mph - N/A   Nubes dispersas
5:00 AM 56 ° F 54 ° F 90% 29.90 pul 10 mi Sin viento Sin viento - -  
5:00 AM 57.2 ° F 53.6 ° F 88% 29.92 pul 6.2 mi Sin viento Sin viento - N/A   Muy nublado
5:30 AM 57.2 ° F 55.4 ° F 94% 29.92 pul 6.2 mi Variable 1.2 mph - N/A   Nublado
6:00 AM 57 ° F 55 ° F 92% 29.91 pul 11 mi Sin viento Sin viento - -  
6:00 AM 57.2 ° F 55.4 ° F 94% 29.92 pul 6.2 mi Sin viento Sin viento - N/A   Muy nublado
6:30 AM 57.2 ° F 55.4 ° F 94% 29.92 pul 6.2 mi Variable 1.2 mph - N/A   Muy nublado
7:00 AM 58 ° F 55 ° F 88% 29.90 pul 11 mi SO 1.2 mph - -  
7:00 AM 59.0 ° F 55.4 ° F 88% 29.92 pul 6.2 mi SO 1.2 mph - N/A   Muy nublado
7:30 AM 59.0 ° F 55.4 ° F 88% 29.92 pul 6.2 mi Sin viento Sin viento - N/A   Muy nublado
8:00 AM 59.0 ° F 55.4 ° F 88% 29.92 pul 6.2 mi SE 2.3 mph - N/A   Muy nublado
8:30 AM 59.0 ° F 55.4 ° F 88% 29.95 pul 6.2 mi Norte 3.5 mph - N/A   Muy nublado
9:00 AM 58 ° F 55 ° F 88% 29.92 pul 11 mi Sin viento Sin viento - -   Parcialmente nublado
9:00 AM 59.0 ° F 55.4 ° F 88% 29.95 pul 6.2 mi Sin viento Sin viento - N/A   Muy nublado
9:30 AM 59.0 ° F 57.2 ° F 94% 29.95 pul 6.2 mi Variable 1.2 mph - N/A   Muy nublado
10:00 AM 62 ° F 57 ° F 79% 29.95 pul 12 mi Oeste 1.2 mph - -  
10:00 AM 62.6 ° F 57.2 ° F 82% 29.98 pul 6.2 mi Variable 1.2 mph - N/A   Nubes dispersas
10:30 AM 64.4 ° F 57.2 ° F 77% 29.98 pul 6.2 mi Sin viento Sin viento - N/A   Nubes dispersas
11:00 AM 66.2 ° F 59.0 ° F 78% 30.01 pul 6.2 mi Sin viento Sin viento - N/A   Muy nublado
11:30 AM 68.0 ° F 57.2 ° F 68% 30.01 pul 6.2 mi Sin viento Sin viento - N/A   Muy nublado
12:00 PM 66 ° F 60 ° F 76% 29.96 pul 7 mi Sin viento Sin viento - -  
12:00 PM 66.2 ° F 59.0 ° F 78% 30.01 pul 6.2 mi Sin viento Sin viento - N/A   Muy nublado
12:30 PM 66.2 ° F 60.8 ° F 83% 30.04 pul 6.2 mi Sin viento Sin viento - N/A   Muy nublado
1:00 PM 67 ° F 61 ° F 75% 29.97 pul 12 mi Sin viento Sin viento - -  
1:00 PM 68.0 ° F 60.8 ° F 78% 30.04 pul 6.2 mi Sin viento Sin viento - N/A   Muy nublado
1:30 PM 69.8 ° F 59.0 ° F 68% 30.04 pul 6.2 mi Sin viento Sin viento - N/A   Muy nublado
2:00 PM 71 ° F 61 ° F 62% 29.95 pul 11 mi Sin viento Sin viento - -   Parcialmente nublado
2:00 PM 71.6 ° F 60.8 ° F 69% 30.01 pul 6.2 mi Sin viento Sin viento - N/A   Muy nublado
2:30 PM 71.6 ° F 59.0 ° F 64% 30.01 pul 6.2 mi Variable 1.2 mph - N/A   Muy nublado
3:00 PM 73 ° F 60 ° F 55% 29.93 pul 16 mi NO 2.3 mph - -   Nublado
3:00 PM 73.4 ° F 59.0 ° F 61% 30.01 pul 6.2 mi Variable 1.2 mph - N/A   Muy nublado
3:30 PM 73.4 ° F 59.0 ° F 61% 30.01 pul 6.2 mi OSO 6.9 mph 19.6 mph N/A   Muy nublado
4:00 PM 77 ° F 58 ° F 42% 29.92 pul 19 mi OSO 10.4 mph - -  
4:00 PM 75.2 ° F 57.2 ° F 53% 30.01 pul 6.2 mi SO 11.5 mph - N/A   Muy nublado
4:30 PM 77.0 ° F 57.2 ° F 50% 30.01 pul 6.2 mi OSO 10.4 mph - N/A   Muy nublado
5:00 PM 77 ° F 58 ° F 41% 29.92 pul 19 mi SO 10.4 mph - -   Parcialmente nublado
5:00 PM 77.0 ° F 57.2 ° F 50% 30.01 pul 6.2 mi SO 10.4 mph - N/A   Nubes dispersas
5:30 PM 77.0 ° F 57.2 ° F 50% 30.04 pul 6.2 mi OSO 6.9 mph - N/A   Nubes dispersas
6:00 PM 75 ° F 57 ° F 44% 29.95 pul 19 mi SO 4.6 mph - -  
6:00 PM 75.2 ° F 55.4 ° F 50% 30.04 pul 6.2 mi OSO 4.6 mph - N/A   Nubes dispersas
6:30 PM 75.2 ° F 57.2 ° F 53% 30.04 pul 6.2 mi ONO 5.8 mph - N/A   Nubes dispersas
7:00 PM 72 ° F 60 ° F 56% 29.97 pul 19 mi Oeste 8.1 mph - -  
7:00 PM 73.4 ° F 59.0 ° F 61% 30.04 pul 6.2 mi Oeste 6.9 mph - N/A   Parcialmente nublado
7:30 PM 71.6 ° F 60.8 ° F 69% 30.06 pul 6.2 mi ONO 8.1 mph - N/A   Parcialmente nublado
8:00 PM 68.0 ° F 59.0 ° F 73% 30.06 pul 6.2 mi Oeste 8.1 mph - N/A   Parcialmente nublado
8:30 PM 68.0 ° F 59.0 ° F 73% 30.09 pul 6.2 mi Oeste 5.8 mph - N/A   Parcialmente nublado
9:00 PM 66.2 ° F 59.0 ° F 78% 30.09 pul 6.2 mi Variable 2.3 mph - N/A   Parcialmente nublado
9:30 PM 64.4 ° F 59.0 ° F 83% 30.09 pul 6.2 mi Variable 1.2 mph - N/A   Parcialmente nublado
10:00 PM 63 ° F 59 ° F 83% 30.08 pul 19 mi SO 5.8 mph - -  
10:00 PM 64.4 ° F 59.0 ° F 83% 30.12 pul 6.2 mi SO 4.6 mph - N/A   Parcialmente nublado
10:30 PM 62.6 ° F 59.0 ° F 88% 30.12 pul 6.2 mi SO 3.5 mph - N/A   Parcialmente nublado
11:00 PM 62 ° F 58 ° F 83% 30.12 pul 19 mi SO 4.6 mph - -   Nubes dispersas
11:00 PM 62.6 ° F 59.0 ° F 88% 30.15 pul 6.2 mi OSO 4.6 mph - N/A   Parcialmente nublado
11:30 PM 62.6 ° F 57.2 ° F 82% 30.15 pul 6.2 mi SO 3.5 mph - N/A   Parcialmente nublado